Showing default

TOPO 1, 4363

Orbit data source: Space-Track

TOPO 1, 4363 is a payload satellite owned by USA ETL (US) in SSO that was launched on Wed, 08 Apr 1970 UTC via a THORAD SLV-2G AGENA D launch vehicle from the Air Force Western Test Range (AFWTR). Payload-class satellites include a variety of spacecraft equipped with specific instruments for various scientific and technological missions. These include communications satellites like Starlink; space stations such as the ISS; scientific satellites like the Hubble; Earth observation satellites from companies like Planet Labs, Umbra, and HawkEye 360; GPS; miniature CubeSats for education and research; and military/defense satellites.

Loading next visibility...
Identifier
4363, 1970-025B
Orbit
SSO
Country
Flag of USUS
Related business
Manufacturer
ITT
Mission
Spacecraft
Bus & Motor
SECOR, Unknown motor
Mass
18 kg wet, 18 kg dry
Launch date (UTC)
1970-04-08 (56 years ago)
Launch vehicle
THORAD SLV-2G AGENA D
Launch site
Air Force Western Test Range (AFWTR)
Object type
Payload
Rocket body
Debris
Shape & HBR
Unknown
Radar Cross Section
Medium (>0.1 m² and <1 m²)

Expand to show TLE details & history
Last TLE update: 16 hours ago

TLE from 16 hours ago
0 TOPO 1
1  4363U 70025B   26036.74335731 -.00000006  00000-0  64318-4 0  9993
2  4363  99.8927 312.3613 0001623 339.9129  37.9845 13.46693128743507
Epoch: 2026-02-05T17:50Z
TLE epoch observation values (Epoch: 2026-02-05T17:50:26.071Z)
Latitude
17.62522°
Longitude
-94.2984°
Altitude
1,085.696 km
Speed
7.311 km/s
True Right ascension
20h 36m 48s
True Declination
17° 31' 50"
Sunlit
Object was in daylight at epoch
Visualization orbit readout
Latitude
Unknown
Longitude
Unknown
Altitude
Unknown
Speed
Unknown
Apparent Right ascension
Unknown
Apparent Declination
Unknown
Sunlit
N/A
Visualization observer readout
Local Sidereal Time
12:08:31
Azimuth
Unknown
Elevation
Unknown
Doppler factor
Unknown
Orbital elements
Apogee altitude
1,082.977 km
Perigee altitude
1,080.555 km
Semi-major axis
7,459.903 km
Eccentricity
0.00016
Inclination
99.8927°
RAAN
312.3613°
Arg. of periapsis
339.9129°
True anomaly
37.99595°
Mean anomaly
37.9845°
Eccentric anomaly
37.99022°
Mean motion
3.36855 °/min
Orbital period
106.87 mins
BSTAR
0.000064318

Documentation

Showing up to 5 results
|